Location: Gaujacq
(43.6397°N, 0.7406°W)
Time: 01:40:15
(UTC+00:00)

Daily predictions for brighter satellites

Satellite Brightness Start Highest point End
(mag) Time Altitude Azimuth Time Altitude Azimuth Time Altitude Azimuth
Cosmos 2082 Rocket 3.9 03:49:32 29° ESE 03:49:32 29° ESE 03:54:14 10° NE
COSMOS 2455 4.2 03:58:09 32° NE 03:58:20 32° NE 04:03:40 10° ESE
Cosmos 1980 Rocket 3.1 04:14:14 44° ESE 04:14:14 44° ESE 04:18:09 10° SE
Cosmos 2279 Rocket 4.3 04:14:28 61° ESE 04:14:28 61° ESE 04:19:53 10° SSE
Cosmos 2098 Rocket 4.3 04:15:57 55° E 04:15:57 55° E 04:21:09 10° SSE
Tiangong 1.5 04:27:21 10° ESE 04:27:21 10° ESE 04:27:24 10° ESE
Cosmos 2333 Rocket 4.4 04:33:56 12° N 04:37:39 21° NE 04:41:54 10° E
Cosmos 2142 Rocket 4.3 04:47:06 34° N 04:50:01 85° W 04:56:12 10° S
USA 234 4.4 04:51:11 10° NE 04:56:31 28° N 04:57:47 26° NNW
SL-4 R/B 4.1 05:03:15 14° NE 05:03:15 14° NE 05:04:04 10° NE
Cosmos 2322 Rocket 4.1 05:02:00 10° N 05:06:38 25° NE 05:11:13 10° ESE
Meteor 2-3 Rocket 4.3 05:03:47 10° S 05:09:24 60° E 05:15:00 10° NNE
Cosmos 1726 Rocket 4.0 05:08:06 20° N 05:10:57 57° E 05:15:05 10° SSE
Cosmos 489 Rocket 4.4 05:06:59 10° SSW 05:13:18 86° ESE 05:19:37 10° NNE
Nadezhda 4 Rocket 3.9 05:08:03 10° S 05:14:22 82° W 05:20:41 10° N
Cosmos 1428 Rocket 4.5 05:09:16 10° S 05:15:29 85° E 05:21:48 10° N
CZ-4 R/B 3.7 05:12:13 10° NNE 05:16:54 81° ESE 05:21:29 10° SSW
NOSS 2-1 (D) 3.2 05:17:47 69° NNW 05:18:14 84° NE 05:23:05 10° SE
SL-24 R/B - RUBIN 2 4.5 05:19:22 32° SSW 05:19:22 32° SSW 05:22:23 10° S
Cosmos 2237 4.2 05:15:45 27° NNW 05:19:02 83° ENE 05:24:44 10° SSE
USA 59 Rocket -0.3 05:20:26 68° NW 05:20:55 84° SW 05:25:53 10° SSE
Cosmos 841 Rocket 3.3 05:16:08 10° SSW 05:21:20 78° WNW 05:26:37 10° NNE
CZ-3 R/B 4.3 05:14:25 20° WSW 05:21:44 26° SW 05:29:11 10° S
COSMOS 2406 3.2 05:16:10 10° SSW 05:21:50 86° ESE 05:27:33 10° NNE
NOSS 2-1 (E) 3.4 05:25:12 51° NNW 05:26:06 79° NE 05:30:54 10° SE
NOSS 3-1 (C) 4.1 05:21:26 23° NW 05:26:28 85° NE 05:35:29 10° SE
Cosmos 1933 3.5 05:27:10 47° SW 05:27:10 47° SW 05:30:12 10° S
Cosmos 1892 Rocket 3.6 05:24:06 10° S 05:28:26 76° E 05:32:50 10° NNE
Cosmos 2195 Rocket 4.5 05:22:33 10° S 05:28:48 86° E 05:35:10 10° N
ATLAS CENTAUR Rocket 4.5 05:27:44 10° SSW 05:32:00 24° SSE 05:42:31 10° ESE
Cosmos 2082 Rocket 2.5 05:31:29 33° WSW 05:33:18 43° WNW 05:38:39 10° NNE
SL-16 R/B 2.6 05:28:40 14° NNW 05:33:36 62° ENE 05:39:11 10° SE
IRS-1D 3.6 05:39:12 10° N 05:44:01 50° WNW 05:48:54 10° SW
COSMOS 2455 3.0 05:41:19 26° NW 05:44:30 51° WSW 05:50:15 10° S
Cosmos 1898 Rocket 3.7 05:42:42 26° NW 05:45:14 47° WSW 05:50:15 10° S
NOSS 2-1 (C) 3.5 05:44:49 37° WNW 05:46:05 57° WSW 05:50:57 10° SSE
Meteor 2-20 4.4 05:40:44 10° N 05:46:52 87° W 05:52:57 10° S
SWAS 4.5 05:51:06 30° NW 05:52:45 50° WSW 05:56:39 10° S
Cosmos-2242 3.1 05:51:05 10° N 05:55:20 76° E 05:59:32 10° SSE
COSMO-SKYMED 1 2.6 05:51:53 10° S 05:55:52 50° W 05:59:10 15° NNW
Cosmos 1980 Rocket 3.5 05:56:02 19° W 05:56:03 19° W 05:59:55 10° SW
Cosmos 2278 3.8 05:51:03 10° NNW 05:56:45 81° ENE 06:02:23 10° SSE
SKYMED 2 4.3 05:55:09 10° SSW 05:59:04 33° W 06:01:14 21° NW
Tiangong -0.5 05:59:42 20° WSW 06:00:55 25° SSW 06:03:38 10° SE
Cosmos 2369 4.4 05:58:13 21° WNW 06:00:59 32° WSW 06:05:57 10° SSW
Cosmos 1627 Rocket 4.4 05:55:17 10° SSW 06:01:20 67° W 06:07:28 10° N
Cosmos 2058 Rocket 3.0 05:58:03 10° N 06:02:31 82° W 06:06:54 10° S
Cosmos 1484 Rocket 2.3 05:59:12 10° N 06:02:37 76° WNW 06:05:59 10° SSW
Meteor 2-2 Rocket 4.2 06:00:07 10° NNW 06:05:50 83° W 06:11:37 10° S
Okean 1 2.9 06:04:38 10° N 06:08:13 89° W 06:11:46 10° S
Meteor 2-20 Rocket 4.2 06:03:16 10° N 06:09:03 82° W 06:14:45 10° S
Cosmos 1937 Rocket 4.0 06:06:02 15° NW 06:09:46 38° WSW 06:14:29 10° S
ATLAS 2AS CENTAUR R/B 4.3 06:06:48 10° S 06:13:17 40° ESE 06:19:37 10° NE
ARIANE 5 R/B 3.9 06:09:52 10° NNE 06:14:50 43° E 06:19:46 10° S
Cosmos 2285 Rocket 4.4 06:08:29 10° NNW 06:14:50 65° ENE 06:21:12 10° SSE
IRIDIUM 104 4.4 06:11:33 10° S 06:16:46 84° E 06:22:01 10° N
Cosmos 2333 Rocket 2.2 06:16:48 10° NNW 06:22:35 75° WSW 06:28:18 10° SSE
IRIDIUM 114 4.3 06:20:41 10° S 06:25:54 81° W 06:31:10 10° N
SMAP 3.3 06:21:23 10° NNE 06:26:04 77° ESE 06:30:42 10° S
Helios 1A Rocket 3.9 06:25:08 10° SW 06:27:35 19° W 06:29:20 13° WNW
Cosmos 2360 Rocket 2.3 06:23:27 10° NNW 06:29:07 85° ENE 06:34:43 10° SSE
Cosmos 2026 Rocket 4.4 06:25:24 10° SW 06:30:58 38° WNW 06:36:36 10° N
Landsat 7 4.1 06:27:21 10° NNE 06:32:01 71° ESE 06:36:39 10° S
Cosmos 1814 Rocket 4.0 06:27:20 10° SSW 06:32:33 75° WNW 06:37:50 10° NNE
NOSS 3-1 (A) 4.2 06:25:42 10° NW 06:33:04 82° SW 06:42:09 10° SSE
CBERS-1 4.0 06:29:44 10° N 06:34:45 59° WNW 06:39:43 10° SSW
IRIDIUM 103 4.3 06:29:54 10° SSW 06:35:05 67° W 06:40:18 10° N
IGS 5A 3.7 06:31:45 10° N 06:35:31 40° WNW 06:39:16 10° SW
BREEZE-M DEB (TANK) 2.2 06:34:37 14° NW 06:36:03 46° NNE 06:38:38 10° ESE
USA 234 4.3 06:32:35 10° E 06:38:24 35° NNE 06:44:13 10° NW
Cosmos 1758 Rocket 3.5 06:34:34 10° SSW 06:38:59 70° W 06:43:24 10° N
SL-4 R/B 2.6 06:36:58 10° NW 06:39:53 31° NNE 06:42:46 10° E
Cosmos 1733 2.0 06:38:14 10° SSW 06:39:57 32° W 06:41:40 10° N
Cosmos 1743 2.2 06:36:54 10° S 06:40:08 88° WNW 06:43:24 10° N
IRS-1C 4.4 06:38:43 10° NNE 06:44:04 75° ESE 06:49:22 10° S
BREEZE-M DEB (TANK) 3.7 06:42:44 10° WNW 06:45:25 41° N 06:52:01 10° ENE
Meteor 2-6 Rocket 4.4 06:40:11 10° NNW 06:46:07 70° W 06:52:01 10° S
Thor Agena Rocket 3.5 06:42:14 10° N 06:47:15 65° WNW 06:52:13 10° SSW
Cosmos 2219 Rocket 2.5 06:42:17 10° NNW 06:47:58 72° ENE 06:53:34 10° SSE
Cosmos 2322 Rocket 2.4 06:45:27 10° NNW 06:51:03 58° WSW 06:56:35 10° S
S3M 4.3 06:45:46 10° N 06:51:59 74° E 06:58:06 10° SSE
Cosmos 1553 Rocket 4.3 06:48:26 10° NNW 06:54:36 52° W 07:00:45 10° SSW
